LBWNLTBI

Guest
Details From LBWN - Varna
To LTBI - ESKISEHIR
Flight Number -
Tags generated
Created
Modified
Stats Distance 245 nm / 453 km
Max Altitude 29,800 ft / 9,083 m
Waypoints 4
Social Downloads 3
Likes 0
Share

Download

Looking for another format? Having issues loading an existing format? Contact us
Advertisement - Login to hide

Notes

Basic altitude profile: - Ascent Rate: 2500ft/min - Ascent Speed: 250kts - Cruise Altitude: 35000ft - Cruise Speed: 420kts - Descent Rate: 1500ft/min - Descent Speed: 250kts Options: - Use NATs: yes - Use PACOTS: yes - Use low airways: no - Use high airways: yes

Route

LBWN MAKOL UL619 GAYEM LTBI

ID Type Via Altitude (ft/m) Position (lat/lon) Dist (leg/tot) Name
O LBWN APT - 0 / 0 43.23204 / 27.82524 - / 0 nm Varna
MAKOL FIX - 29,800 / 9,083 42.17056 / 29.14278 86 / 86 nm
GAYEM FIX UL619 (AWY-HI) 27,500 / 8,382 41.04694 / 29.62861 70 / 157 nm
O LTBI APT - 0 / 0 39.78421 / 30.58193 87 / 244 nm ESKISEHIR

Altitude Profile

Advertisement - Login to hide

Weather


0- 5 10 15 20 25 30 35+ Temperature / °C

Clouds and Precipitation
Forecast for 2021-08-02 12:00 UTC. Updated 3 hours ago

Ground ~20,000 ft ~40,000 ft Winds

LBWN

Details ICAO LBWN (VAR)
Name Varna Airport
Region Bulgaria
Timezone Europe/Sofia (UTC+3.0)
Stats Elevation 229 ft / 70 m (AMSL)
Location 43.232000° 27.825300°
Runways 1
Magnetic Variation 6.024° E

METAR

LBWN 021230Z 10016KT CAVOK 32/22 Q1008 NOSIG

Decode

TAF

TAF LBWN 021100Z 0212/0312 10016KT CAVOK BECMG 0218/0220 VRB04KT

Decode

Departure Runways

ID Width Length Bearing (true/mag) Surface Threshold Overrun Markings Lighting
09 148 ft / 45 m 8,443 ft / 2,573 m 96.95° / 90.93° ASPHALT 98 ft / 30 m 0 ft / 0 m PREC-APP CENTERLINE EDGE THRESHOLD REIL-OMNI
27 148 ft / 45 m 8,443 ft / 2,573 m 276.97° / 270.95° ASPHALT 112 ft / 34 m 0 ft / 0 m PREC-APP CENTERLINE EDGE THRESHOLD REIL-OMNI

LTBI

Details ICAO LTBI (ESK)
Name ESKISEHIR
Region Turkey
Timezone Europe/Istanbul (UTC+3.0)
Stats Elevation 2,581 ft / 787 m (AMSL)
Location 39.784200° 30.581900°
Runways 1
Magnetic Variation 5.793° E

METAR

LTBI 021150Z 35005KT 280V050 CAVOK 34/07 Q1014 NOSIG RMK RWY08 VRB05KT

Decode

TAF

Not found

Destination Runways

ID Width Length Bearing (true/mag) Surface Threshold Overrun Markings Lighting
09 150 ft / 46 m 9,984 ft / 3,043 m 89.57° / 83.78° ASPHALT 0 ft / 0 m 513 ft / 156 m APP EDGE THRESHOLD
27 150 ft / 46 m 9,984 ft / 3,043 m 269.59° / 263.80° ASPHALT 0 ft / 0 m 493 ft / 150 m APP EDGE THRESHOLD CALVERT

Popular Alternatives